Location: Newark
(43.6583°N, 1.6617°E)
Time: 12:31:36
(UTC+00:00)

Vanguard 3 - Visible Passes

Search period start: 21 August 2019 00:00
Search period end: 31 August 2019 00:00
Orbit: 508 x 3263 km, 33.3° (Epoch: 21 August)

Date Brightness Start Highest point End Pass type
(mag) Time Alt. Az. Time Alt. Az. Time Alt. Az.
21 Aug 8.0 19:59:31 10° SW 20:02:36 19° S 20:04:04 16° SSE visible
22 Aug 8.7 20:58:11 10° SW 20:58:50 11° SW 20:58:50 11° SW visible
23 Aug 8.2 19:43:15 10° WSW 19:46:40 19° SSW 19:49:00 12° SSE visible
24 Aug 8.7 20:42:33 10° SW 20:43:45 11° SSW 20:43:45 11° SSW visible
25 Aug 8.5 19:26:54 10° WSW 19:30:41 20° SSW 19:33:41 10° SSE visible
26 Aug 8.8 20:26:58 10° SW 20:27:47 10° SSW 20:28:35 10° SSW visible
27 Aug 8.7 19:10:26 10° WSW 19:14:39 20° SSW 19:17:53 10° SSE visible
